Visibility
15.0 15.0 15.0 15.0 15.0 15.0 15.0 15.0 15.0 15.0 15.0 15.0 15.0 15.0 15.0 15.0 15.0 15.0 15.0 9.8 3.7 3.4
15.0 15.0 15.0 15.0 15.0 15.0 15.0 15.0 15.0 15.0 15.0 15.0 15.0 15.0 4.9 14.9 15.0 14.2 15.0 5.3 5.5 6.6
15.0 15.0 15.0 15.0 15.0 15.0 15.0 15.0 15.0 15.0 15.0 15.0 9.8 15.0 13.2 7.2 11.9 12.2 15.0 12.4 5.2 8.3
15.0 15.0 15.0 15.0 15.0 15.0 15.0 15.0 15.0 15.0 15.0 15.0 15.0 15.0 9.2 2.1 15.0 3.6 0.3 1.5 4.9 4.6
15.0 15.0 15.0 15.0 15.0 15.0 15.0 15.0 15.0 15.0 15.0 15.0 15.0 15.0 15.0 0.5 15.0 14.8 1.1 12.8 7.3 3.0
15.0 15.0 15.0 15.0 15.0 15.0 15.0 15.0 15.0 14.7 3.1 15.0 15.0 15.0 15.0 15.0 15.0 15.0 14.1 4.4 5.9 1.9
15.0 15.0 15.0 15.0 15.0 15.0 15.0 8.3 6.4 10.8 12.2 13.0 10.8 10.6 13.9 13.2 9.5 10.7 7.9 7.6 4.9 8.9
15.0 15.0 15.0 15.0 15.0 15.0 15.0 15.0 15.0 14.5 14.7 15.0 14.6 15.0 15.0 15.0 13.9 2.4 0.3 3.0 5.5 7.1
15.0 15.0 15.0 15.0 15.0 15.0 15.0 15.0 15.0 15.0 15.0 15.0 13.8 11.1 15.0 10.1 5.3 5.5 5.6 0.1 1.7 7.6
15.0 15.0 15.0 15.0 15.0 15.0 15.0 15.0 15.0 15.0 14.0 10.6 14.9 11.8 15.0 11.6 12.7 12.0 15.0 15.0 15.0 11.5
15.0 15.0 15.0 15.0 15.0 15.0 15.0 15.0 15.0 7.9 15.0 15.0 15.0 14.7 14.7 15.0 15.0 15.0 15.0 15.0 15.0 15.0
15.0 15.0 15.0 15.0 15.0 15.0 15.0 15.0 15.0 15.0 15.0 15.0 15.0 15.0 15.0 15.0 15.0 15.0 15.0 15.0 15.0 15.0
15.0 15.0 15.0 15.0 15.0 15.0 15.0 15.0 15.0 15.0 15.0 15.0 15.0 15.0 15.0 15.0 15.0 15.0 15.0 15.0 15.0 15.0
15.0 15.0 15.0 15.0 15.0 15.0 15.0 15.0 15.0 15.0 15.0 15.0 15.0 15.0 15.0 15.0 15.0 15.0 15.0 15.0 15.0 15.0